Regional Weather Roundup
Issued by NWS

Home | Current Version | Previous Version | Graphics & Text | Print | Product List | Glossary On
Versions: 1 2 3 4 5 6 7 8 9 10 11 12 13 14 15 16 17 18 19 20 21 22 23 24 25 26 27 28 29 30 31 32 33 34 35 36 37 38 39 40 41 42 43 44 45 46 47 48 49 50
000
ASUS45 KPSR 162010
RWRAZ

ARIZONA REGIONAL HOURLY WEATHER ROUNDUP
NATIONAL WEATHER SERVICE PHOENIX AZ
100 PM MST TUE SEP 16 2014

NOTE: FAIR INDICATES FEW OR NO CLOUDS BELOW 12,000 FEET WITH NO
SIGNIFICANT WEATHER AND/OR OBSTRUCTIONS TO VISIBILITY.

AZZ001>003-036-162100-
NORTHWEST ARIZONA

CITY           SKY/WX    TMP DP  RH WIND       PRES   REMARKS
BULLHEAD CITY  SUNNY     99  66  34 S13G18    29.83F HX 102
KINGMAN        SUNNY     89  63  41 W8        30.03F
$$

AZZ004>008-015-016-018-162100-
NORTH CENTRAL ARIZONA

CITY           SKY/WX    TMP DP  RH WIND       PRES   REMARKS
GRAND CANYON   SUNNY     74  47  38 E12       30.26F
PRESCOTT       PTSUNNY   81  57  43 VRB6      30.15F
FLAGSTAFF      PTSUNNY   71  53  52 VRB3      30.28F
PAYSON         CLOUDY    77  59  53 S9G16     30.19F
PAGE           SUNNY     88  51  28 N6        30.10F
$$

AZZ009>014-017-162100-
NORTHEAST ARIZONA

CITY           SKY/WX    TMP DP  RH WIND       PRES   REMARKS
WINSLOW        PTSUNNY   84  52  33 N7        30.15F
SAINT JOHNS    CLOUDY    77  50  38 SE10G17   30.20F
WINDOW ROCK    CLOUDY    77  50  38 VRB6      30.29
SHOW LOW       LGT RAIN  63  55  77 S13       30.29F
$$

AZZ023-162100-
GREATER PHOENIX AREA

CITY           SKY/WX    TMP DP  RH WIND       PRES   REMARKS
PHOENIX        LGT RAIN  83  68  60 SE15G24   29.91F
BUCKEYE          N/A     86  66  51 SE15      29.91S
GLENDALE       PTSUNNY   88  68  51 SE13      29.92F
LUKE AFB       CLOUDY    88  67  49 SE18      29.90F
DEER VALLEY    CLOUDY    88  64  44 SE14      29.92F
SCOTTSDALE     CLOUDY    85  64  49 SE13G21   29.95S
MESA-FALCON    PTSUNNY   77  70  78 E9        29.94S
MESA-GATEWAY   LGT RAIN  79  70  73 SE6       29.96F
CHANDLER       LGT RAIN  79  72  78 E7        29.94F
$$

AZZ027-028-162100-
SOUTHWEST MARICOPA COUNTY AND PINAL COUNTY

CITY           SKY/WX    TMP DP  RH WIND       PRES   REMARKS
CASA GRANDE    CLOUDY    75  66  73 N8        29.94F
GILA BEND      LGT RAIN  82  70  65 E5        29.90F
$$

AZZ503-504-507>509-162100-
SOUTHEAST ARIZONA

CITY           SKY/WX    TMP DP  RH WIND       PRES   REMARKS
TUCSON         CLOUDY    80  64  58 E5        30.00F
DAVIS-MONTHAN  CLOUDY    79  66  65 NE6       29.98F
RYAN FIELD       N/A     81  64  57 E7        29.98F
NOGALES        CLOUDY    77  62  59 E12       30.03F
SIERRA VISTA   CLOUDY    72  64  78 E7        30.12F
DOUGLAS        CLOUDY    77  63  61 E12       30.08F
SAFFORD        LGT RAIN  71  64  78 SW3       30.09F
$$

AZZ020-021-025-026-031-162100-
SOUTHWEST ARIZONA

CITY           SKY/WX    TMP DP  RH WIND       PRES   REMARKS
YUMA           CLOUDY    98  63  31 E8        29.80F HX 100
$$

CAZ031-033-041-043-047-048-061-162100-
SOUTHERN CALIFORNIA

CITY           SKY/WX    TMP DP  RH WIND       PRES   REMARKS
DOWNTOWN L.A.  SUNNY     95  62  33 W5        29.73S
L.A. AIRPORT   MOSUNNY   85  61  44 W10       29.75F
SAN DIEGO      MOSUNNY   89  66  46 NW10      29.73F
BURBANK        SUNNY    103  52  18 S6        29.75F HX 100
ONTARIO        MOSUNNY  105  56  19 VRB5      29.75F HX 104
RIVERSIDE      SUNNY    104  57  21 CALM      29.74F HX 103
PALM SPRINGS   MOSUNNY   99  69  37 E12       29.81F HX 105
EL CENTRO NAS  MOSUNNY  100  66  32 E8        29.77F HX 104
IMPERIAL       SUNNY     99  65  32 E10       29.76F HX 102
BLYTHE         MOSUNNY   96  65  35 SE7       29.81F
NEEDLES        SUNNY    100  65  31 S9G16     29.84F HX 103
$$

NVZ020-UTZ003-162100-
SOUTHERN NEVADA-UTAH

CITY           SKY/WX    TMP DP  RH WIND       PRES   REMARKS
LAS VEGAS      MOSUNNY   98  56  24 S5        29.86F
SALT LAKE CITY MOSUNNY   90  36  14 S12       30.04F
$$

NMZ009-TXZ055-162100-
NEW MEXICO-WEST TEXAS

CITY           SKY/WX    TMP DP  RH WIND       PRES   REMARKS
ALBUQUERQUE    CLOUDY    72  58  61 S6        30.25F
EL PASO        CLOUDY    76  65  68 N3        30.14F
$$


........................KEY........................
SKY/WX - SKY CONDITION/WEATHER
TMP    - TEMPERATURE IN FAHRENHEIT
DP     - DEW POINT IN FAHRENHEIT
RH     - RELATIVE HUMIDITY IN PERCENT
WIND   - DIRECTION AND SPEED IN MILES PER HOUR (MPH)
VRB    - VARIABLE WIND DIRECTION
PRES   - MEAN SEA LEVEL PRESSURE IN INCHES OF MERCURY
         F - FALLING PRESSURE   R - RISING PRESSURE
         S - STEADY PRESSURE
VSB    - VISIBILITY IN MILES
HX     - HEAT INDEX IN FAHRENHEIT
WCI    - WIND CHILL INDEX IN FAHRENHEIT
TC     - TEMPERATURE IN CELSIUS WHICH IS ALSO KNOWN AS
         TEMPERATURE IN CENTIGRADE
AFB    - AIR FORCE BASE
         LUKE AFB IS LUKE AIR FORCE BASE
         DAVIS-MONTHAN IS DAVIS-MONTHAN AIR FORCE BASE
NAS    - NAVAL AIR STATION
         EL CENTRO NAS IS EL CENTRO NAVAL AIR STATION
N/A    - NOT AVAILABLE


USA.gov is the U.S. government's official web portal to all federal, state and local government web resources and services.